[[{"header":{"parameterUnit":"m.s-1","parameterCategory":1,"la1":30.2991,"la2":30.254,"lo1":-89.0895,"lo2":-89.0444,"dy":0.0017,"dx":0.0017,"nx":28,"ny":28,"refTime":"2024-08-22T03:00:00:Z","depth":0,"parameterNumber":2,"parameterNumberName":"U-component_of_WINDS"},"data":[0,0,0,0,0,0,0,0,0,0,0,0,0,0,0,0,0,0,0,0,0,0,0,0,0,0,0,0,0,0,0,0,0,0,0,0,0,0,0,0,0,0,0,0,0,0,0,0,0,0,0,0,0,0,0,0,0,0,-2.0592,-2.0596,0,-2.1014,-2.1019,-2.1023,-2.1245,-2.1245,-2.1245,-2.1245,-2.1687,-2.1698,-2.1709,0,0,0,0,0,0,0,0,0,0,0,0,0,-1.9985,-1.9995,-2.0591,-2.0596,-2.0602,-2.1013,-2.1019,-2.1025,-2.1245,-2.1245,-2.1245,-2.1246,-2.1683,-2.1697,-2.171,0,0,0,0,0,0,0,0,0,0,0,0,0,-2.0312,-1.9998,-2.059,-2.0761,-2.078,-2.1012,-2.1019,-2.1026,-2.1244,-2.1245,-2.1245,-2.1246,-2.1679,-2.1695,-2.1712,-2.1809,0,0,-2.1765,-2.1772,0,0,0,0,0,0,0,0,-2.0293,-2.0334,-2.0731,-2.0749,-2.0772,-2.1077,-2.0967,-2.1289,-2.1244,-2.1068,-2.1245,-2.1246,-2.1484,-2.1517,-2.1596,-2.183,-2.1849,-2.1766,-2.1777,-2.1784,-2.1789,0,0,0,0,0,0,0,-2.027,-2.0317,-2.0759,-2.0736,-2.0761,-2.082,-2.0866,-2.1029,-2.1269,-2.1084,-2.1101,-2.1147,-2.1496,-2.1579,-2.1608,-2.1855,-2.1766,-2.1781,-2.1792,-2.1798,-2.2195,-2.2195,0,0,0,0,0,0,-2.0219,-2.0297,-2.0745,-2.0772,-2.0528,-2.083,-2.0883,-2.0979,-2.1268,-2.1312,-2.1146,-2.1156,-2.1549,-2.1587,-2.1624,-2.176,-2.1784,-2.18,-2.181,-2.2194,-2.2195,-2.2195,0,0,0,0,0,0,-2.0205,-2.0256,-2.0728,-2.0539,-2.0603,-2.084,-2.0946,-2.0987,-2.107,-2.1315,-2.136,-2.1187,-2.1551,-2.16,-2.1762,-2.1778,-2.1808,-2.1823,-2.2194,-2.2194,-2.2195,-2.2029,0,0,0,0,0,0,-2.0186,-2.025,-2.0287,-2.0538,-2.0612,-2.0855,-2.0947,-2.0995,-2.1098,-2.1115,-2.1365,-2.1407,-2.1555,-2.1735,-2.1779,-2.1802,-2.1837,-2.2194,-2.2194,-2.2195,-2.2034,-2.2024,-2.2015,0,0,0,0,0,-2.0164,-2.0225,-2.0288,-2.0341,-2.0663,-2.0856,-2.0899,-2.1066,-2.1098,-2.1139,-2.1297,-2.1399,-2.1768,-2.175,-2.1801,-2.183,-2.2194,-2.2194,-2.2195,-2.2039,-2.2026,-2.2015,0,0,0,0,0,0,-1.9973,-2.0261,-2.0334,-2.0477,-2.064,-2.0892,-2.0949,-2.1047,-2.1206,-2.1215,-2.1419,-2.1473,-2.1617,-2.174,-2.1714,-2.1941,-2.1992,-2.2002,-2.1855,-2.1845,-2.1836,-2.1804,-2.1851,0,0,0,0,0,-1.9946,-2.0076,-2.0322,-2.0425,-2.0502,-2.0711,-2.0801,-2.0915,-2.1094,-2.1165,-2.1335,-2.1506,-2.1662,-2.176,-2.1916,-2.2052,-2.2112,-2.2098,-2.2088,-2.2078,-2.2086,-2.2171,-2.2169,-2.2196,-2.2196,-2.2196,0,0,-1.9895,-2.0069,-2.0139,-2.0391,-2.053,-2.0663,-2.0768,-2.0903,-2.1005,-2.1187,-2.135,-2.148,-2.1686,-2.1835,-2.191,-2.1942,-2.2092,-2.2079,-2.207,-2.2084,-2.2171,-2.2168,-2.2166,-2.2197,-2.2197,-2.2197,0,0,-1.987,-2.0012,-2.0115,-2.0252,-2.0462,-2.06,-2.0624,-2.0863,-2.0955,-2.1121,-2.1261,-2.1387,-2.1649,-2.1791,-2.1897,-2.1925,-2.2026,-2.197,-2.1921,-2.2001,-2.1999,-2.1998,-2.2011,-2.2013,-2.1977,-2.1977,-2.1976,0,-1.9781,-1.9984,-2.0156,-2.0284,-2.0393,-2.056,-2.0668,-2.0793,-2.1044,-2.1116,-2.1148,-2.1482,-2.1632,-2.1819,-2.1825,-2.1905,-2.1942,-2.1944,-2.1984,-2.1985,-2.1987,-2.2003,-2.2007,-2.1969,-2.197,-2.197,-2.1971,0,-1.9866,-2.0004,-2.0062,-2.0297,-2.0412,-2.0528,-2.0722,-2.0818,-2.0922,-2.1058,-2.1227,-2.1413,-2.1611,-2.1663,-2.1767,-2.1866,-2.188,-2.1944,-2.2001,-2.1973,-2.1992,-2.1999,-2.1957,-2.196,-2.1963,-2.1965,0,0,-1.9734,-2.0061,-2.008,-2.019,-2.0433,-2.0545,-2.0671,-2.0862,-2.0942,-2.1109,-2.1223,-2.1441,-2.1503,-2.1623,-2.1745,-2.1814,-2.1829,-2.1873,-2.188,-2.1861,-2.1954,-2.1905,-2.1909,-2.1896,-2.1898,-2.1899,-2.1938,0,-1.9746,-1.9976,-2.0135,-2.0305,-2.0437,-2.0598,-2.0708,-2.0871,-2.1001,-2.1135,-2.1281,-2.1434,-2.1502,-2.1576,-2.1652,-2.181,-2.1851,-2.181,-2.2008,-2.2013,-2.1954,-2.1918,-2.1867,-2.1894,-2.1946,-2.1947,-2.1948,0,-1.9791,-1.995,-2.0131,-2.0362,-2.0424,-2.0519,-2.0708,-2.0832,-2.1022,-2.1113,-2.1246,-2.137,-2.1514,-2.1554,-2.1758,-2.1726,-2.1817,-2.1907,-2.1912,-2.194,-2.198,-2.1948,-2.1907,-2.1911,-2.196,-2.1959,-2.1958,0,-1.968,-1.994,-2.0084,-2.0172,-2.0443,-2.0507,-2.0624,-2.0813,-2.0918,-2.1084,-2.1156,-2.1336,-2.1436,-2.1576,-2.1747,-2.176,-2.1934,-2.1988,-2.2017,-2.2013,-2.2049,-2.2045,-2.2025,-2.2101,-2.2101,-2.2101,-2.2101,0,-1.9679,-1.9784,-2.0038,-2.0126,-2.025,-2.0433,-2.0553,-2.0683,-2.085,-2.097,-2.112,-2.123,-2.1448,-2.1585,-2.172,-2.187,-2.1914,-2.1994,-2.203,-2.1983,-2.1973,-2.2047,-2.2051,-2.2102,-2.2102,-2.2102,-2.2101,0,-1.9577,-1.975,-1.9918,-2.0159,-2.0223,-2.0304,-2.0514,-2.0608,-2.0746,-2.0895,-2.0941,-2.1159,-2.1329,-2.1512,-2.1744,-2.1836,-2.198,-2.2028,-2.1915,-2.1935,-2.1955,-2.1952,-2.1985,-2.2,-2.2061,-2.206,-2.2059,0,-1.9566,-1.9651,-1.9901,-1.999,-2.0102,-2.0244,-2.0351,-2.0536,-2.0642,-2.0864,-2.0932,-2.1112,-2.1267,-2.1531,-2.1713,-2.1892,-2.1948,-2.1947,-2.1976,-2.1927,-2.1953,-2.1946,-2.1958,-2.1939,-2.1937,-2.1936,-2.1935,0,-1.9529,-1.9611,-1.9758,-1.9935,-2.0058,-2.0208,-2.0364,-2.0429,-2.0645,-2.0758,-2.0931,-2.105,-2.1287,-2.1465,-2.1667,-2.1792,-2.1901,-2.1924,-2.1941,-2.1895,-2.1827,-2.1868,-2.1893,-2.1923,-2.1924,-2.1925,-2.1926,-2.1926,-1.9476,-1.956,-1.9749,-1.9909,-2.0044,-2.0186,-2.0287,-2.0436,-2.0583,-2.0787,-2.0888,-2.1062,-2.1253,-2.1534,-2.1656,-2.1797,-2.1831,-2.1854,-2.1861,-2.1865,-2.1854,-2.1801,-2.1835,-2.1835,-2.1836,-2.1836,-2.1837,0,-1.945,-1.9579,-1.9723,-1.9935,-2.0062,-2.0148,-2.0326,-2.0427,-2.0577,-2.0744,-2.0891,-2.1093,-2.1267,-2.1461,-2.1649,-2.1725,-2.178,-2.1768,-2.1766,-2.1794,-2.1812,-2.178,-2.1721,-2.1721,-2.1721,-2.1721,-2.1721,-2.1721,-1.9451,-1.9598,-1.9702,-1.9919,-2.0049,-2.0218,-2.0312,-2.0445,-2.058,-2.0796,-2.094,-2.1064,-2.1244,-2.1446,-2.1611,-2.1664,-2.1728,-2.1702,-2.177,-2.1783,-2.1792,-2.1801,-2.1773,-2.1713,-2.1713,-2.1742,-2.1742,-2.1742]},{"header":{"parameterUnit":"m.s-1","parameterCategory":1,"la1":30.2991,"la2":30.254,"lo1":-89.0895,"lo2":-89.0444,"dy":0.0017,"dx":0.0017,"nx":28,"ny":28,"refTime":"2024-08-22T03:00:00:Z","depth":0,"parameterNumber":3,"parameterNumberName":"V-component_of_WINDS"},"data":[0,0,0,0,0,0,0,0,0,0,0,0,0,0,0,0,0,0,0,0,0,0,0,0,0,0,0,0,0,0,0,0,0,0,0,0,0,0,0,0,0,0,0,0,0,0,0,0,0,0,0,0,0,0,0,0,0,0,2.4944,2.4943,0,2.4872,2.4871,2.487,2.4803,2.4802,2.4801,2.48,2.4723,2.4722,2.472,0,0,0,0,0,0,0,0,0,0,0,0,0,2.5018,2.5017,2.4944,2.4943,2.4942,2.4872,2.4871,2.487,2.4803,2.4802,2.4801,2.48,2.4723,2.4722,2.472,0,0,0,0,0,0,0,0,0,0,0,0,0,2.497,2.5016,2.4944,2.49,2.4895,2.4872,2.4871,2.487,2.4803,2.4802,2.48,2.4799,2.4724,2.4722,2.472,2.4733,0,0,2.4714,2.4713,0,0,0,0,0,0,0,0,2.4972,2.4967,2.4907,2.4903,2.4898,2.4845,2.4869,2.4824,2.4803,2.4838,2.48,2.4799,2.4764,2.4759,2.4748,2.473,2.4726,2.4714,2.4713,2.4712,2.4711,0,0,0,0,0,0,0,2.4976,2.497,2.4915,2.4906,2.4901,2.4882,2.4874,2.486,2.4809,2.4835,2.483,2.4822,2.4761,2.475,2.4746,2.4725,2.4714,2.4712,2.4711,2.471,2.471,2.4711,0,0,0,0,0,0,2.4986,2.4973,2.4917,2.4913,2.4933,2.4882,2.4873,2.4863,2.4809,2.4799,2.4823,2.4819,2.4754,2.4748,2.4743,2.4752,2.4712,2.471,2.4709,2.4709,2.4711,2.4712,0,0,0,0,0,0,2.4988,2.4982,2.492,2.4942,2.4932,2.4882,2.4872,2.4862,2.4851,2.48,2.479,2.4822,2.4753,2.4745,2.4736,2.4748,2.4709,2.4708,2.4708,2.471,2.4711,2.4772,0,0,0,0,0,0,2.4991,2.4983,2.4989,2.4942,2.4931,2.4916,2.4873,2.4862,2.4848,2.4842,2.4796,2.4787,2.4751,2.4739,2.4734,2.4745,2.4706,2.4706,2.4709,2.4711,2.4769,2.4776,2.4782,0,0,0,0,0,2.4994,2.5009,2.499,2.4983,2.4938,2.4917,2.4911,2.487,2.485,2.4854,2.4821,2.4789,2.4749,2.4738,2.4732,2.4743,2.4705,2.4708,2.4711,2.4766,2.4775,2.4782,0,0,0,0,0,0,2.5057,2.5002,2.498,2.4981,2.4954,2.4906,2.491,2.4881,2.4859,2.4854,2.4803,2.4793,2.4788,2.4765,2.4755,2.4751,2.4722,2.4724,2.4767,2.4774,2.4781,2.4785,2.4705,0,0,0,0,0,2.5072,2.5061,2.5013,2.5018,2.5006,2.4961,2.495,2.4921,2.4891,2.4879,2.4845,2.4816,2.4796,2.4784,2.4764,2.4766,2.4753,2.477,2.4777,2.4782,2.4783,2.4779,2.4785,2.472,2.472,2.472,0,0,2.5101,2.5069,2.5065,2.503,2.5006,2.4994,2.4951,2.4941,2.4931,2.4877,2.4865,2.484,2.4803,2.4799,2.4795,2.4779,2.4799,2.4786,2.4791,2.4788,2.4782,2.4789,2.4794,2.4722,2.4722,2.4721,0,0,2.5147,2.5124,2.5124,2.5101,2.5066,2.5035,2.5036,2.4991,2.4972,2.496,2.4918,2.4905,2.4873,2.4848,2.4831,2.4867,2.4835,2.4862,2.4895,2.4891,2.4896,2.49,2.491,2.4914,2.4863,2.4863,2.4864,0,2.5187,2.5169,2.5128,2.512,2.5104,2.5056,2.5055,2.5034,2.4993,2.4982,2.4966,2.4923,2.4896,2.4883,2.4891,2.488,2.4877,2.4865,2.4899,2.4903,2.4906,2.4915,2.4919,2.4867,2.4866,2.4866,2.4866,0,2.5218,2.5206,2.5211,2.5173,2.5158,2.5154,2.511,2.51,2.5072,2.5043,2.5029,2.4995,2.4965,2.496,2.4933,2.4943,2.4933,2.4909,2.4878,2.4916,2.4923,2.4926,2.4871,2.487,2.4869,2.4868,0,0,2.5301,2.5241,2.5243,2.5224,2.5182,2.517,2.5163,2.5135,2.5125,2.5099,2.5089,2.5063,2.5039,2.502,2.4989,2.4987,2.5013,2.4962,2.496,2.497,2.5018,2.5035,2.5039,2.4993,2.4993,2.4994,2.502,0,2.5338,2.5322,2.5285,2.528,2.5267,2.5221,2.5213,2.5185,2.5158,2.5141,2.5109,2.509,2.5062,2.505,2.5046,2.5011,2.5022,2.5009,2.498,2.4979,2.4988,2.5043,2.5062,2.5088,2.5022,2.5023,2.5023,0,2.5378,2.5355,2.5349,2.5305,2.5298,2.5293,2.5263,2.5248,2.5214,2.5194,2.5173,2.5139,2.5126,2.5099,2.5078,2.507,2.5056,2.5037,2.5037,2.5031,2.5002,2.5035,2.5096,2.5099,2.5028,2.5027,2.5027,0,2.5435,2.5402,2.5394,2.538,2.533,2.5326,2.5305,2.527,2.5255,2.5229,2.5217,2.519,2.5174,2.5152,2.511,2.5095,2.5092,2.5063,2.5072,2.5073,2.5072,2.5072,2.5127,2.5068,2.5068,2.5068,2.5067,0,2.5477,2.5475,2.5419,2.5413,2.5408,2.5365,2.5361,2.5335,2.5304,2.5291,2.525,2.5238,2.5185,2.5167,2.5134,2.5119,2.5113,2.5094,2.5085,2.5096,2.5098,2.5084,2.508,2.5068,2.5068,2.5068,2.5068,0,2.5539,2.5502,2.5489,2.5443,2.5431,2.5429,2.5388,2.538,2.5351,2.5334,2.5328,2.528,2.5256,2.5213,2.5176,2.5154,2.5145,2.5131,2.5157,2.5151,2.5161,2.516,2.5207,2.521,2.5152,2.5152,2.5153,0,2.5567,2.5564,2.5518,2.5507,2.5488,2.5471,2.5455,2.5412,2.5397,2.5358,2.5354,2.5327,2.5302,2.5265,2.5225,2.5196,2.5179,2.5198,2.5174,2.5185,2.5176,2.5175,2.5173,2.5203,2.5204,2.5204,2.5205,0,2.562,2.5602,2.5582,2.5556,2.5539,2.5516,2.549,2.5483,2.5434,2.5419,2.5394,2.5376,2.5338,2.531,2.5275,2.525,2.5218,2.5213,2.5213,2.5223,2.5237,2.5226,2.5168,2.5211,2.5211,2.521,2.521,2.521,2.5663,2.5658,2.5625,2.5603,2.558,2.5557,2.5547,2.5516,2.5495,2.5463,2.5438,2.5415,2.5378,2.5328,2.5305,2.5284,2.5269,2.527,2.527,2.527,2.5273,2.5243,2.5278,2.5277,2.5277,2.5277,2.5277,0,2.5712,2.5688,2.567,2.5636,2.5619,2.5593,2.5563,2.5549,2.553,2.55,2.5478,2.5448,2.542,2.5379,2.5348,2.5338,2.5323,2.5331,2.533,2.5324,2.5289,2.5291,2.5344,2.5344,2.5344,2.5344,2.5344,2.5344,2.5735,2.5723,2.5701,2.5677,2.5652,2.5631,2.5615,2.5593,2.5569,2.5538,2.5516,2.549,2.5454,2.542,2.5392,2.538,2.5369,2.5382,2.5365,2.5333,2.5327,2.5321,2.5322,2.5381,2.5381,2.5401,2.5402,2.5402]}]]